Time,TemperatureF,DewpointF,PressureIn,WindDirection,WindDirectionDegrees,WindSpeedMPH,WindSpeedGustMPH,Humidity,HourlyPrecipIn,Conditions,Clouds,dailyrainin,SolarRadiationWatts/m^2,SoftwareType,DateUTC
2013-02-23 00:01:00,30.0,11.0,-100.00,SW,214,6.0,12.0,45,0.00,,,0.00,0.000000,,2013-02-23 07:01:00,
2013-02-23 00:11:00,30.0,11.0,-100.00,SW,214,6.0,12.0,45,0.00,,,0.00,0.000000,,2013-02-23 07:11:00,
2013-02-23 00:21:00,30.0,14.0,-100.00,WSW,243,7.0,10.0,50,0.00,,,0.00,0.000000,,2013-02-23 07:21:00,
2013-02-23 00:42:00,30.0,14.0,-100.00,WSW,243,7.0,10.0,50,0.00,,,0.00,0.000000,,2013-02-23 07:42:00,
2013-02-23 00:52:00,30.0,14.0,-100.00,WSW,243,7.0,10.0,50,0.00,,,0.00,0.000000,,2013-02-23 07:52:00,
2013-02-23 01:01:00,30.0,14.0,-100.00,WSW,243,7.0,10.0,50,0.00,,,0.00,0.000000,,2013-02-23 08:01:00,
2013-02-23 01:11:00,30.0,14.0,-100.00,WSW,243,7.0,10.0,50,0.00,,,0.00,0.000000,,2013-02-23 08:11:00,
2013-02-23 01:21:00,31.0,13.0,-100.00,SSW,210,6.0,10.0,46,0.00,,,0.00,0.000000,,2013-02-23 08:21:00,
2013-02-23 01:42:00,31.0,13.0,-100.00,SSW,210,6.0,10.0,46,0.00,,,0.00,0.000000,,2013-02-23 08:42:00,
2013-02-23 01:52:00,31.0,13.0,-100.00,SSW,210,6.0,10.0,46,0.00,,,0.00,0.000000,,2013-02-23 08:52:00,
2013-02-23 02:01:00,31.0,13.0,-100.00,SSW,210,6.0,10.0,46,0.00,,,0.00,0.000000,,2013-02-23 09:01:00,
2013-02-23 02:11:00,31.0,13.0,-100.00,SSW,210,6.0,10.0,46,0.00,,,0.00,0.000000,,2013-02-23 09:11:00,
2013-02-23 02:21:00,30.0,13.0,-100.00,WNW,287,7.0,9.0,48,0.00,,,0.00,0.000000,,2013-02-23 09:21:00,
2013-02-23 02:42:00,30.0,13.0,-100.00,WNW,287,7.0,9.0,48,0.00,,,0.00,0.000000,,2013-02-23 09:42:00,
2013-02-23 02:52:00,30.0,13.0,-100.00,WNW,287,7.0,9.0,48,0.00,,,0.00,0.000000,,2013-02-23 09:52:00,
2013-02-23 03:01:00,30.0,13.0,-100.00,WNW,287,7.0,9.0,48,0.00,,,0.00,0.000000,,2013-02-23 10:01:00,
2013-02-23 03:11:00,30.0,13.0,-100.00,WNW,287,7.0,9.0,48,0.00,,,0.00,0.000000,,2013-02-23 10:11:00,
2013-02-23 03:21:00,32.0,15.0,-100.00,SW,234,9.0,12.0,48,0.00,,,0.00,0.000000,,2013-02-23 10:21:00,
2013-02-23 03:42:00,32.0,15.0,-100.00,SW,234,9.0,12.0,48,0.00,,,0.00,0.000000,,2013-02-23 10:42:00,
2013-02-23 03:52:00,32.0,15.0,-100.00,SW,234,9.0,12.0,48,0.00,,,0.00,0.000000,,2013-02-23 10:52:00,
2013-02-23 04:02:00,32.0,15.0,-100.00,SW,234,9.0,12.0,48,0.00,,,0.00,0.000000,,2013-02-23 11:02:00,
2013-02-23 04:11:00,32.0,15.0,-100.00,SW,234,9.0,12.0,48,0.00,,,0.00,0.000000,,2013-02-23 11:11:00,
2013-02-23 04:21:00,33.0,14.0,-100.00,WSW,244,7.0,12.0,45,0.00,,,0.00,0.000000,,2013-02-23 11:21:00,
2013-02-23 04:42:00,33.0,14.0,-100.00,WSW,244,7.0,12.0,45,0.00,,,0.00,0.000000,,2013-02-23 11:42:00,
2013-02-23 04:52:00,33.0,14.0,-100.00,WSW,244,7.0,12.0,45,0.00,,,0.00,0.000000,,2013-02-23 11:52:00,
2013-02-23 05:01:00,33.0,14.0,-100.00,WSW,244,7.0,12.0,45,0.00,,,0.00,0.000000,,2013-02-23 12:01:00,
2013-02-23 05:11:00,33.0,14.0,-100.00,WSW,244,7.0,12.0,45,0.00,,,0.00,0.000000,,2013-02-23 12:11:00,
2013-02-23 05:21:00,33.0,13.0,-100.00,West,270,12.0,17.0,43,0.00,,,0.00,0.000000,,2013-02-23 12:21:00,
2013-02-23 05:42:00,33.0,13.0,-100.00,West,270,12.0,17.0,43,0.00,,,0.00,0.000000,,2013-02-23 12:42:00,
2013-02-23 05:52:00,33.0,13.0,-100.00,West,270,12.0,17.0,43,0.00,,,0.00,0.000000,,2013-02-23 12:52:00,
2013-02-23 06:01:00,33.0,13.0,-100.00,West,270,12.0,17.0,43,0.00,,,0.00,0.000000,,2013-02-23 13:01:00,
2013-02-23 06:11:00,33.0,13.0,-100.00,West,270,12.0,17.0,43,0.00,,,0.00,0.000000,,2013-02-23 13:11:00,
2013-02-23 06:21:00,31.0,13.0,-100.00,West,273,10.0,15.0,47,0.00,,,0.00,0.000000,,2013-02-23 13:21:00,
2013-02-23 06:42:00,31.0,13.0,-100.00,West,273,10.0,15.0,47,0.00,,,0.00,0.000000,,2013-02-23 13:42:00,
2013-02-23 06:52:00,31.0,13.0,-100.00,West,273,10.0,15.0,47,0.00,,,0.00,0.000000,,2013-02-23 13:52:00,
2013-02-23 07:02:00,31.0,13.0,-100.00,West,273,10.0,15.0,47,0.00,,,0.00,0.000000,,2013-02-23 14:02:00,
2013-02-23 07:11:00,31.0,13.0,-100.00,West,273,10.0,15.0,47,0.00,,,0.00,0.000000,,2013-02-23 14:11:00,
2013-02-23 07:21:00,33.0,14.0,-100.00,WSW,253,9.0,16.0,45,0.00,,,0.00,1.000000,,2013-02-23 14:21:00,
2013-02-23 07:42:00,33.0,14.0,-100.00,WSW,253,9.0,16.0,45,0.00,,,0.00,1.000000,,2013-02-23 14:42:00,
2013-02-23 07:52:00,33.0,14.0,-100.00,WSW,253,9.0,16.0,45,0.00,,,0.00,1.000000,,2013-02-23 14:52:00,
2013-02-23 08:01:00,33.0,14.0,-100.00,WSW,253,9.0,16.0,45,0.00,,,0.00,1.000000,,2013-02-23 15:01:00,
2013-02-23 08:11:00,33.0,14.0,-100.00,WSW,253,9.0,16.0,45,0.00,,,0.00,1.000000,,2013-02-23 15:11:00,
2013-02-23 08:21:00,34.0,17.0,-100.00,NW,311,9.0,18.0,49,0.00,,,0.00,16.000000,,2013-02-23 15:21:00,
2013-02-23 08:42:00,34.0,17.0,-100.00,NW,311,9.0,18.0,49,0.00,,,0.00,16.000000,,2013-02-23 15:42:00,
2013-02-23 08:52:00,34.0,17.0,-100.00,NW,311,9.0,18.0,49,0.00,,,0.00,16.000000,,2013-02-23 15:52:00,
2013-02-23 09:01:00,34.0,17.0,-100.00,NW,311,9.0,18.0,49,0.00,,,0.00,16.000000,,2013-02-23 16:01:00,
2013-02-23 09:11:00,34.0,17.0,-100.00,NW,311,9.0,18.0,49,0.00,,,0.00,16.000000,,2013-02-23 16:11:00,
2013-02-23 09:21:00,34.0,15.0,-100.00,West,262,8.0,14.0,45,0.00,,,0.00,49.000000,,2013-02-23 16:21:00,
2013-02-23 09:42:00,34.0,15.0,-100.00,West,262,8.0,14.0,45,0.00,,,0.00,49.000000,,2013-02-23 16:42:00,
2013-02-23 09:52:00,34.0,15.0,-100.00,West,262,8.0,14.0,45,0.00,,,0.00,49.000000,,2013-02-23 16:52:00,
2013-02-23 10:01:00,34.0,15.0,-100.00,West,262,8.0,14.0,45,0.00,,,0.00,49.000000,,2013-02-23 17:01:00,
2013-02-23 10:11:00,34.0,15.0,-100.00,West,262,8.0,14.0,45,0.00,,,0.00,49.000000,,2013-02-23 17:11:00,
2013-02-23 10:21:00,36.0,27.0,-100.00,NNW,331,5.0,8.0,70,0.00,,,0.00,103.000000,,2013-02-23 17:21:00,
2013-02-23 10:42:00,36.0,27.0,-100.00,NNW,331,5.0,8.0,70,0.00,,,0.00,103.000000,,2013-02-23 17:42:00,
2013-02-23 10:52:00,36.0,27.0,-100.00,NNW,331,5.0,8.0,70,0.00,,,0.00,103.000000,,2013-02-23 17:52:00,
2013-02-23 11:01:00,36.0,27.0,-100.00,NNW,331,5.0,8.0,70,0.00,,,0.00,103.000000,,2013-02-23 18:01:00,
2013-02-23 11:12:00,36.0,27.0,-100.00,NNW,331,5.0,8.0,70,0.00,,,0.00,103.000000,,2013-02-23 18:12:00,
2013-02-23 11:21:00,34.0,23.0,-100.00,WSW,242,8.0,13.0,65,0.00,,,0.00,132.000000,,2013-02-23 18:21:00,
2013-02-23 11:42:00,34.0,23.0,-100.00,WSW,242,8.0,13.0,65,0.00,,,0.00,132.000000,,2013-02-23 18:42:00,
2013-02-23 11:52:00,34.0,23.0,-100.00,WSW,242,8.0,13.0,65,0.00,,,0.00,132.000000,,2013-02-23 18:52:00,
2013-02-23 12:01:00,34.0,23.0,-100.00,WSW,242,8.0,13.0,65,0.00,,,0.00,132.000000,,2013-02-23 19:01:00,
2013-02-23 12:11:00,34.0,23.0,-100.00,WSW,242,8.0,13.0,65,0.00,,,0.00,132.000000,,2013-02-23 19:11:00,
2013-02-23 12:21:00,29.0,27.0,-100.00,WSW,252,15.0,21.0,91,0.00,,,0.00,105.000000,,2013-02-23 19:21:00,
2013-02-23 12:42:00,29.0,27.0,-100.00,WSW,252,15.0,21.0,91,0.00,,,0.00,105.000000,,2013-02-23 19:42:00,
2013-02-23 12:52:00,29.0,27.0,-100.00,WSW,252,15.0,21.0,91,0.00,,,0.00,105.000000,,2013-02-23 19:52:00,
2013-02-23 13:01:00,29.0,27.0,-100.00,WSW,252,15.0,21.0,91,0.00,,,0.00,105.000000,,2013-02-23 20:01:00,
2013-02-23 13:11:00,29.0,27.0,-100.00,WSW,252,15.0,21.0,91,0.00,,,0.00,105.000000,,2013-02-23 20:11:00,
2013-02-23 13:21:00,30.0,29.0,-100.00,WSW,241,10.0,21.0,95,0.00,,,0.00,128.000000,,2013-02-23 20:21:00,
2013-02-23 13:42:00,30.0,29.0,-100.00,WSW,241,10.0,21.0,95,0.00,,,0.00,128.000000,,2013-02-23 20:42:00,
2013-02-23 13:52:00,30.0,29.0,-100.00,WSW,241,10.0,21.0,95,0.00,,,0.00,128.000000,,2013-02-23 20:52:00,
2013-02-23 14:01:00,30.0,29.0,-100.00,WSW,241,10.0,21.0,95,0.00,,,0.00,128.000000,,2013-02-23 21:01:00,
2013-02-23 14:11:00,30.0,29.0,-100.00,WSW,241,10.0,21.0,95,0.00,,,0.00,128.000000,,2013-02-23 21:11:00,
2013-02-23 14:21:00,31.0,30.0,-100.00,WSW,252,11.0,15.0,95,0.00,,,0.00,174.000000,,2013-02-23 21:21:00,
2013-02-23 14:42:00,31.0,30.0,-100.00,WSW,252,11.0,15.0,95,0.00,,,0.00,174.000000,,2013-02-23 21:42:00,
2013-02-23 14:52:00,31.0,30.0,-100.00,WSW,252,11.0,15.0,95,0.00,,,0.00,174.000000,,2013-02-23 21:52:00,
2013-02-23 15:01:00,31.0,30.0,-100.00,WSW,252,11.0,15.0,95,0.00,,,0.00,174.000000,,2013-02-23 22:01:00,
2013-02-23 15:11:00,31.0,30.0,-100.00,WSW,252,11.0,15.0,95,0.00,,,0.00,174.000000,,2013-02-23 22:11:00,
2013-02-23 15:21:00,32.0,30.0,-100.00,WNW,302,8.0,15.0,94,0.00,,,0.00,105.000000,,2013-02-23 22:21:00,
2013-02-23 15:42:00,32.0,30.0,-100.00,WNW,302,8.0,15.0,94,0.00,,,0.00,105.000000,,2013-02-23 22:42:00,
2013-02-23 15:52:00,32.0,30.0,-100.00,WNW,302,8.0,15.0,94,0.00,,,0.00,105.000000,,2013-02-23 22:52:00,
2013-02-23 16:01:00,32.0,30.0,-100.00,WNW,302,8.0,15.0,94,0.00,,,0.00,105.000000,,2013-02-23 23:01:00,
2013-02-23 16:11:00,32.0,30.0,-100.00,WNW,302,8.0,15.0,94,0.00,,,0.00,105.000000,,2013-02-23 23:11:00,
2013-02-23 16:21:00,29.0,26.0,-100.00,NW,323,20.0,28.0,89,0.00,,,0.00,65.000000,,2013-02-23 23:21:00,
2013-02-23 16:42:00,29.0,26.0,-100.00,NW,323,20.0,28.0,89,0.00,,,0.00,65.000000,,2013-02-23 23:42:00,
2013-02-23 16:52:00,29.0,26.0,-100.00,NW,323,20.0,28.0,89,0.00,,,0.00,65.000000,,2013-02-23 23:52:00,
2013-02-23 17:01:00,29.0,26.0,-100.00,NW,323,20.0,28.0,89,0.00,,,0.00,65.000000,,2013-02-24 00:01:00,
2013-02-23 17:11:00,29.0,26.0,-100.00,NW,323,20.0,28.0,89,0.00,,,0.00,65.000000,,2013-02-24 00:11:00,
2013-02-23 17:21:00,28.0,27.0,-100.00,NNW,329,14.0,26.0,96,0.00,,,0.00,19.000000,,2013-02-24 00:21:00,
2013-02-23 17:42:00,28.0,27.0,-100.00,NNW,329,14.0,26.0,96,0.00,,,0.00,19.000000,,2013-02-24 00:42:00,
2013-02-23 17:52:00,28.0,27.0,-100.00,NNW,329,14.0,26.0,96,0.00,,,0.00,19.000000,,2013-02-24 00:52:00,
2013-02-23 18:01:00,28.0,27.0,-100.00,NNW,329,14.0,26.0,96,0.00,,,0.00,19.000000,,2013-02-24 01:01:00,
2013-02-23 18:11:00,28.0,27.0,-100.00,NNW,329,14.0,26.0,96,0.00,,,0.00,19.000000,,2013-02-24 01:11:00,
2013-02-23 18:21:00,28.0,27.0,-100.00,North,0,7.0,19.0,97,0.00,,,0.00,5.000000,,2013-02-24 01:21:00,
2013-02-23 18:42:00,28.0,27.0,-100.00,North,0,7.0,19.0,97,0.00,,,0.00,5.000000,,2013-02-24 01:42:00,
2013-02-23 18:52:00,28.0,27.0,-100.00,North,0,7.0,19.0,97,0.00,,,0.00,5.000000,,2013-02-24 01:52:00,
2013-02-23 19:01:00,28.0,27.0,-100.00,North,0,7.0,19.0,97,0.00,,,0.00,5.000000,,2013-02-24 02:01:00,
2013-02-23 19:11:00,28.0,27.0,-100.00,North,0,7.0,19.0,97,0.00,,,0.00,5.000000,,2013-02-24 02:11:00,
2013-02-23 19:21:00,28.0,27.0,-100.00,North,353,5.0,8.0,97,0.00,,,0.00,0.000000,,2013-02-24 02:21:00,
2013-02-23 19:42:00,28.0,27.0,-100.00,North,353,5.0,8.0,97,0.00,,,0.00,0.000000,,2013-02-24 02:42:00,
2013-02-23 19:52:00,28.0,27.0,-100.00,North,353,5.0,8.0,97,0.00,,,0.00,0.000000,,2013-02-24 02:52:00,
2013-02-23 20:01:00,28.0,27.0,-100.00,North,353,5.0,8.0,97,0.00,,,0.00,0.000000,,2013-02-24 03:01:00,
2013-02-23 20:11:00,28.0,27.0,-100.00,North,353,5.0,8.0,97,0.00,,,0.00,0.000000,,2013-02-24 03:11:00,
2013-02-23 20:21:00,28.0,27.0,-100.00,WNW,287,5.0,9.0,95,0.00,,,0.00,0.000000,,2013-02-24 03:21:00,
2013-02-23 20:42:00,28.0,27.0,-100.00,WNW,287,5.0,9.0,95,0.00,,,0.00,0.000000,,2013-02-24 03:42:00,
2013-02-23 20:52:00,28.0,27.0,-100.00,WNW,287,5.0,9.0,95,0.00,,,0.00,0.000000,,2013-02-24 03:52:00,
2013-02-23 21:01:00,28.0,27.0,-100.00,WNW,287,5.0,9.0,95,0.00,,,0.00,0.000000,,2013-02-24 04:01:00,
2013-02-23 21:11:00,28.0,27.0,-100.00,WNW,287,5.0,9.0,95,0.00,,,0.00,0.000000,,2013-02-24 04:11:00,
2013-02-23 21:21:00,29.0,25.0,-100.00,WNW,296,7.0,16.0,84,0.00,,,0.00,0.000000,,2013-02-24 04:21:00,
2013-02-23 21:42:00,29.0,25.0,-100.00,WNW,296,7.0,16.0,84,0.00,,,0.00,0.000000,,2013-02-24 04:42:00,
2013-02-23 21:52:00,29.0,25.0,-100.00,WNW,296,7.0,16.0,84,0.00,,,0.00,0.000000,,2013-02-24 04:52:00,
2013-02-23 22:01:00,29.0,25.0,-100.00,WNW,296,7.0,16.0,84,0.00,,,0.00,0.000000,,2013-02-24 05:01:00,
2013-02-23 22:11:00,29.0,25.0,-100.00,WNW,296,7.0,16.0,84,0.00,,,0.00,0.000000,,2013-02-24 05:11:00,
2013-02-23 22:21:00,29.0,22.0,-100.00,NW,314,15.0,20.0,74,0.00,,,0.00,0.000000,,2013-02-24 05:21:00,
2013-02-23 22:42:00,29.0,22.0,-100.00,NW,314,15.0,20.0,74,0.00,,,0.00,0.000000,,2013-02-24 05:42:00,
2013-02-23 22:52:00,29.0,22.0,-100.00,NW,314,15.0,20.0,74,0.00,,,0.00,0.000000,,2013-02-24 05:52:00,
2013-02-23 23:01:00,29.0,22.0,-100.00,NW,314,15.0,20.0,74,0.00,,,0.00,0.000000,,2013-02-24 06:01:00,
2013-02-23 23:11:00,29.0,22.0,-100.00,NW,314,15.0,20.0,74,0.00,,,0.00,0.000000,,2013-02-24 06:11:00,
2013-02-23 23:21:00,29.0,22.0,-100.00,NW,309,11.0,21.0,75,0.00,,,0.00,0.000000,,2013-02-24 06:21:00,
2013-02-23 23:42:00,29.0,22.0,-100.00,NW,309,11.0,21.0,75,0.00,,,0.00,0.000000,,2013-02-24 06:42:00,
2013-02-23 23:52:00,29.0,22.0,-100.00,NW,309,11.0,21.0,75,0.00,,,0.00,0.000000,,2013-02-24 06:52:00,